Simultaneous Nadir Overpasses (SNOs) Predictions

Prediction of SNOs between METOP-A and TERRA Satellite Orbit:

Table of predicted SNOs for the next 14.0 days since TLE Epoch: 3/21/2015
Index Date (METOP-A) Time (METOP-A) Lat,Lon (METOP-A) SZA (METOP-A ) Date (TERRA) Time (TERRA) Lat,Lon (TERRA) SZA (TERRA ) Distance(km) Time Diff (sec)
1 03/21/2015 13:52:32 -81.33,-160.52 96.32 03/21/2015 13:53:43 -81.34,-160.33 96.26 3.37 71
2 03/21/2015 14:43:12 81.33, 7.04 83.70 03/21/2015 14:43:10 81.33, 7.09 83.70 1.05 2
3 03/24/2015 09:26:52 -81.33, -93.85 97.37 03/24/2015 09:27:59 -81.33, -94.01 97.36 2.63 67
4 03/24/2015 10:17:32 81.33, 73.67 82.64 03/24/2015 10:17:25 81.34, 73.76 82.65 1.70 7
5 03/27/2015 05:01:14 -81.33, -27.65 98.47 03/27/2015 05:02:15 -81.33, -27.61 98.44 0.71 61
6 03/27/2015 05:51:53 81.33, 140.22 81.58 03/27/2015 05:51:41 81.33, 140.13 81.57 1.59 12
7 03/30/2015 00:35:35 -81.33, 38.88 99.53 03/30/2015 00:36:30 -81.33, 38.88 99.50 0.25 55
8 03/30/2015 01:26:14 81.34,-153.28 80.53 03/30/2015 01:25:56 81.33,-153.42 80.50 2.22 18
9 04/01/2015 20:09:55 -81.33, 105.33 100.58 04/01/2015 20:10:43 -81.34, 105.45 100.54 2.12 48




NCC Satellite Simultaneous Nadir Overpasses (SNOs) Prediction Service
